Location: Stara Lesna
(49.1528°N, 20.2911°E)
Time: 09:41:58
(UTC+02:00)

Cosmos 1869 Rocket - Pass Details

Date: 13 July 2020
Orbit: 605 x 633 km, 82.5° (Epoch: 05 August)

Event Time Altitude Azimuth Distance (km) Brightness Sun altitude
Exits shadow 02:10:09 24° 160° (SSE) 1,282 4.7 -16.5°
Maximum altitude 02:12:33 51° 94° (E) 764 4.1 -16.4°
Drops below altitude 10° 02:16:46 10° 19° (NNE) 1,972 7.5 -16.2°
Sets 02:19:02 0° 14° (NNE) 2,884 8.7 -16.0°
